This is the latest recevied weather packets stored in our database for station/object WAYLND-WX. If no packets are shown the sender has not sent any weather packets the latest 10 day(s).
| Time | Temp. | Humidity | Pressure | Rain* | Wind** | Luminosity | Snow |
|---|---|---|---|---|---|---|---|
| 1777878075 | 8.33° C | 78% | 977 hPa | 0 mm | - | - | - |
| 1777877145 | 8.33° C | 77% | 978.5 hPa | 0 mm | - | - | - |
| 1777876263 | 8.33° C | 77% | 978.5 hPa | 0 mm | - | - | - |
| 1777875345 | 8.33° C | 77% | 978.5 hPa | 0 mm | - | - | - |
| 1777874485 | 8.33° C | 77% | 978.5 hPa | 0 mm | - | - | - |
| 1777873540 | 8.33° C | 75% | 979.3 hPa | 0 mm | - | - | - |
| 1777872662 | 8.89° C | 77% | 978.8 hPa | 0 mm | - | - | - |
| 1777871744 | 8.33° C | 77% | 978.8 hPa | 0 mm | - | - | - |
| 1777870878 | 8.33° C | 77% | 978.8 hPa | 0 mm | - | - | - |
| 1777869941 | 8.33° C | 77% | 979.2 hPa | 0 mm | - | - | - |
| 1777869065 | 8.89° C | 76% | 979.1 hPa | 0 mm | - | - | - |
| 1777868141 | 8.33° C | 76% | 979.1 hPa | 0 mm | - | - | - |
| 1777867281 | 8.33° C | 76% | 979.1 hPa | 0 mm | - | - | - |
| 1777866341 | 8.89° C | 77% | 979.6 hPa | 0 mm | - | - | - |
| 1777865462 | 8.89° C | 77% | 979.8 hPa | 0 mm | - | - | - |
| 1777864543 | 8.89° C | 77% | 979.8 hPa | 0 mm | - | - | - |
| 1777863676 | 8.89° C | 77% | 979.8 hPa | 0 mm | - | - | - |
| 1777862741 | 8.89° C | 72% | 979.6 hPa | 0 mm | - | - | - |
| 1777861857 | 8.89° C | 75% | 979.8 hPa | 0 mm | - | - | - |
| 1777860941 | 8.89° C | 75% | 979.8 hPa | 0 mm | - | - | - |
| 1777860074 | 8.89° C | 75% | 979.8 hPa | 0 mm | - | - | - |
| 1777859141 | 8.89° C | 72% | 980.5 hPa | 0 mm | - | - | - |
| 1777858260 | 9.44° C | 72% | 980.5 hPa | 0 mm | - | - | - |
| 1777857340 | 9.44° C | 72% | 980.4 hPa | 0 mm | - | - | - |
| 1777856473 | 9.44° C | 72% | 980.4 hPa | 0 mm | - | - | - |
* Rain latest hour (hover to see other rain measurements)
** Current wind speed in m/s (hover to see current wind gust speed)